User: anonymous   Login
Location: Cazavet
(43.0017°N, 1.0431°E)
Time: 01:42:09
(UTC+00:00)
Language:

SL-8 Rocket - Orbit

View from above orbital plane
View from above orbital plane
View from above satellite
View from above satellite

Ground track
Ground track

The orbit is defined by the following mean orbital elements,

1 21088U          26070.74067078 +.00000000 +00000-0 +65719-4 0 00008
2 21088  82.9465 168.5212 0022957  32.7248  77.3402 13.77494568    08
Epoch (UTC): 11 March 2026 17:46:33
Eccentricity: 0.0022957
inclination: 82.9465°
perigee height: 956 km
apogee height: 990 km
right ascension of ascending node: 168.5212°
argument of perigee: 32.7248°
revolutions per day: 13.77494568
mean anomaly at epoch: 77.3402°

The dashed part of the orbit path shows where the satellite is in the earth's shadow,  

DLR